Regional Weather Roundup
Issued by NWS

Home | Current Version | Previous Version | Graphics & Text | Print | Product List | Glossary On
Versions: 1 2 3 4 5 6 7 8 9 10 11 12 13 14 15 16 17 18 19 20 21 22 23 24 25 26 27 28 29 30 31 32 33 34 35 36 37 38 39 40 41 42 43 44 45 46 47 48 49 50
000
ASUS43 KLOT 212104
RWRIL

ILLINOIS REGIONAL WEATHER ROUNDUP
NATIONAL WEATHER SERVICE CHICAGO/ROMEOVILLE IL
400 PM CDT FRI JUL 21 2017

NOTE: "FAIR" INDICATES FEW OR NO CLOUDS BELOW 12,000 FEET WITH NO
SIGNIFICANT WEATHER AND/OR OBSTRUCTIONS TO VISIBILITY.

* THESE STATIONS ARE NOT UNDER NWS QUALITY CONTROL. THEY ALSO MAY NOT
  REPORT WEATHER SUCH AS PRECIPITATION OR FOG.

ILZ001-002-007-009-015-016-024-212200-
NORTHWEST ILLINOIS

CITY           SKY/WX    TMP DP  RH WIND       PRES   REMARKS
MOLINE         SUNNY     93  78  61 S12G20    29.83F HX 108
STERLING*      SUNNY     89  78  70 S6        29.89F HX 103
SAVANNA*       MOSUNNY   86  76  72 E12       29.88F HX  95
$$

ILZ003-004-008-010-011-017-018-212200-
NORTH CENTRAL ILLINOIS

CITY           SKY/WX    TMP DP  RH WIND       PRES   REMARKS
ROCKFORD       CLOUDY    80  71  74 E9        29.94F HX  84
FREEPORT*      CLOUDY    78  71  80 E7        29.94F HX  80
ROCHELLE*      CLOUDY    84  77  80 E7        29.93S HX  93
DE KALB*       CLOUDY    83  76  79 CALM      29.96R HX  92
PERU*          SUNNY    N/A N/A N/A S9        29.90F
$$

ILZ005-006-012>014-019>023-212200-
NORTHEAST ILLINOIS

CITY           SKY/WX    TMP DP  RH WIND       PRES   REMARKS
CHICAGO-OHARE  CLOUDY    86  70  58 S8        29.93S HX  90
CHICAGO-MIDWAY CLOUDY    89  69  51 S8        29.92F HX  93
AURORA         PTSUNNY   87  76  69 SE7       29.93F HX  97
LANSING*       MOSUNNY   85  69  58 S9        29.95S HX  88
JOLIET*        CLOUDY    87  76  68 SE8       29.93S HX  98
WAUKEGAN       CLOUDY    78  67  68 SE5       29.95R HX  80
DUPAGE AIRPORT CLOUDY    85  74  69 S6        29.93S HX  92
WHEELING       CLOUDY    85  73  67 E6        29.94S HX  91
MORRIS*        PTSUNNY   87  77  73 SE8       29.91F HX  98
ROMEOVILLE*    CLOUDY    86  71  59 S8        29.93F HX  91
NORTHERLY ISL    N/A     79  71  76 E6          N/A  HX  82
$$

LMZ740>746-212200-
SOUTHERN LAKE MICHIGAN

STATION/POSITION SKY/WX   TEMP    WIND        PRES    VSBY  WAVE
                          AIR SEA DIR/SP/G                  HT/PER
                          (F)     (DEG/KT/KT) (MB)    (MI)  (FT/S)
SOUTHERN BUOY              73 72  190/  4/  6 1014.9          0
WILMETTE HARBOR            75 74   90/  8/ 10   N/A           1
HARRISON CRIB              78     100/ 13/ 13   N/A
BURNHAM HARBOR             78                   N/A
CALUMET HARBOR             80      70/  8/ 11 1013.4F
BURNS HARBOR               81     340/  3/  5 1014.2F
MICHIGAN CITY              79      10/  5/  6   N/A
MICHIGAN CITY 6N           78 78   50/  4/  6   N/A           0
ST. JOSEPH                 76 77   80/  6/  6 1013.8F         0
$$

ILZ025>027-034>036-040-047-049-050-058-095>099-212200-
WEST-CENTRAL ILLINOIS

CITY           SKY/WX    TMP DP  RH WIND       PRES   REMARKS
QUINCY         SUNNY     97  71  42 S14       29.89F HX 104
GALESBURG*     SUNNY     92  77  62 S9        29.89F HX 106
MACOMB*        SUNNY     93  73  53 S9G16     29.90F HX 101
JACKSONVILLE*  MOSUNNY   94  73  49 S10       29.90F HX 103
PITTSFIELD*    SUNNY     96  73  47 SW9       29.91F HX 105
$$

ILZ028>032-037-038-041>044-048-051>054-059>061-212200-
CENTRAL ILLINOIS

CITY           SKY/WX    TMP DP  RH WIND       PRES   REMARKS
PONTIAC        SUNNY     90  82  76 SE7       29.92F HX 111
BLOOMINGTON    MOSUNNY   94  76  55 S13       29.93F HX 106
DECATUR        MOSUNNY   95  74  50 SW9       29.92F HX 105
PEORIA         SUNNY     94  73  50 SW15G21   29.89F HX 103
LACON*         MOSUNNY   91  77  63 S10       29.88F HX 105
LINCOLN*       SUNNY     95  76  54 SW6       29.91F HX 109
SPRINGFIELD    MOSUNNY   96  76  52 SW7       29.91F HX 109
TAYLORVILLE    MOSUNNY   94  77  58 S6        29.92F HX 108
$$

ILZ033-039-045-046-055>057-062-063-212200-
EAST-CENTRAL ILLINOIS

CITY           SKY/WX    TMP DP  RH WIND       PRES   REMARKS
CHAMPAIGN      SUNNY     90  80  72 S5        29.93F HX 107
MATTOON        SUNNY     96  74  48 VRB7      29.92F HX 107
PARIS*         CLOUDY    89  77  67 E6        29.95F HX 101
$$

ILZ079-100>102-212200-
SOUTHWEST ILLINOIS

CITY           SKY/WX    TMP DP  RH WIND       PRES   REMARKS
ALTON          MOSUNNY   95  75  52 SE8       29.92F HX 107
BELLEVILLE     SUNNY     99  74  44 SW6       29.92F HX 110
CAHOKIA*       MOSUNNY  101  67  32 S7        29.90F HX 106
SPARTA*        MOSUNNY   97  76  50 S10       29.94F HX 111
$$

ILZ064>066-069>071-074>076-080>082-084>086-088>090-092>094-212200-
SOUTH-CENTRAL ILLINOIS

CITY           SKY/WX    TMP DP  RH WIND       PRES   REMARKS
CARBONDALE     MOSUNNY   92  78  63 VRB6      29.94F HX 107
CAIRO*         SUNNY     95  76  54 S7        29.95F HX 108
EFFINGHAM*     MOSUNNY   98  73  44 CALM      29.94F HX 108
MARION         PTSUNNY   97  79  56 S7        29.95F HX 115
MT. VERNON     SUNNY     99  77  49 S13       29.93F HX 114
CENTRALIA*     SUNNY     99  74  44 SW6       29.92F HX 111
SALEM*         CLOUDY    98  72  42 SW3       29.93F HX 107
METROPOLIS*    MOSUNNY   95  77  55 S6        29.96F HX 110
$$

ILZ067-068-072-073-078-083-087-091-212200-
SOUTHEAST ILLINOIS

CITY           SKY/WX    TMP DP  RH WIND       PRES   REMARKS
LAWRENCEVILLE  SUNNY     96  75  50 S7        29.94F HX 108
FLORA*         MOSUNNY   91  79  68 SW6       29.94S HX 106
FAIRFIELD*     MOSUNNY   94  77  56 S3        29.93F HX 108
HARRISBURG*    MOSUNNY   96  79  58 SW5       29.94F HX 113
ROBINSON*      SUNNY     93  80  65 S8        29.94F HX 110
CARMI*         SUNNY     94  82  68 S6        29.94F HX 116
$$

ABBREVIATIONS USED IN REMARKS
   TC - TEMPERATURE IN CELSIUS
  WCI - WIND CHILL INDEX
   HX - HEAT INDEX
  VSB - VISIBILITY
$$





USA.gov is the U.S. government's official web portal to all federal, state and local government web resources and services.